EW9060 Weather Reports


time (UTC)temp
F
wind
direction
speed
knots
gust
knots
rain 1hr
in
rain 24hr
in
rain mn
in
humidity
%
barometer
mb
20260505041519 54 64 0.0 0.0 0.11 0.35 0.35 91 1016.1
20260505040024 54 61 0.0 0.0 0.13 0.33 0.33 91 1016.2
20260505034519 54 86 0.0 0.0 0.13 0.32 0.32 91 1016.0
20260505033019 54 50 0.0 0.0 0.10 0.28 0.28 90 1016.1
20260505031517 54 72 0.0 1.7 0.07 0.24 0.24 90 1016.5
20260505030015 54 76 0.0 3.5 0.04 0.20 0.20 89 1016.2
20260505024517 55 74 1.7 6.1 0.04 0.18 0.18 88 1015.9
20260505023014 55 144 2.6 7.0 0.04 0.18 0.18 89 1014.8
20260505021514 55 117 2.6 7.0 0.04 0.17 0.17 89 1015.0
20260505020013 56 107 1.7 4.3 0.04 0.16 0.16 89 1015.2
20260505014512 56 84 0.9 2.6 0.02 0.14 0.14 89 1015.2
20260505013012 56 104 0.0 3.5 0.03 0.14 0.14 89 1015.1
20260505011515 56 130 0.9 2.6 0.03 0.13 0.13 89 1015.3
20260505010114 56 95 0.0 5.2 0.04 0.12 0.12 89 1015.5
20260505004511 56 147 0.0 6.1 0.05 0.12 0.12 89 1015.8
20260505003019 56 112 1.7 7.8 0.05 0.11 0.11 88 1015.8
20260505001509 56 62 2.6 7.0 0.06 0.10 0.10 89 1015.7
20260505000009 56 91 3.5 7.0 0.05 0.08 0.08 88 1015.7
20260504234509 57 104 0.0 8.7 0.04 0.07 0.07 88 1015.5
20260504233007 57 107 3.5 7.8 0.04 0.06 0.06 86 1015.6
20260504231506 58 137 2.6 7.0 0.03 0.04 0.04 86 1015.5
20260504230006 58 82 0.9 4.3 0.02 0.03 0.03 85 1015.9
20260504224505 59 96 1.7 5.2 0.01 0.02 0.02 83 1015.8
20260504223005 60 78 1.7 4.3 0.01 0.02 0.02 80 1016.0
20260504221503 60 120 0.0 0.0 0.00 0.01 0.01 75 1015.9
20260504220003 60 105 0.0 2.6 0.00 0.01 0.01 73 1015.9
20260504214504 61 142 0.0 3.5 0.00 0.01 0.01 73 1016.1
20260504213004 61 161 0.9 3.5 0.00 0.01 0.01 73 1016.0
20260504211501 61 103 0.0 2.6 0.00 0.01 0.01 74 1016.1
20260504210109 60 202 0.0 2.6 0.00 0.01 0.01 76 1016.2
20260504204614 60 149 0.0 4.3 0.00 0.01 0.01 78 1016.1
20260504203109 60 117 0.9 2.6 0.00 0.01 0.01 74 1016.0
20260504201558 60 137 0.0 2.6 0.00 0.01 0.01 77 1016.0
20260504200058 60 107 0.0 1.7 0.00 0.01 0.01 75 1016.3
20260504194602 60 151 0.9 5.2 0.00 0.01 0.01 75 1016.3
20260504193054 59 104 1.7 6.1 0.01 0.01 0.01 77 1016.3
20260504191554 59 102 2.6 7.0 0.01 0.01 0.01 77 1016.4
20260504190154 59 205 0.9 7.0 0.01 0.01 0.01 80 1016.3
20260504184552 59 119 0.9 7.0 0.01 0.01 0.01 81 1016.4
20260504183051 59 161 1.7 7.0 0.00 0.00 0.00 79 1016.4
20260504181551 59 144 2.6 7.0 0.00 0.00 0.00 74 1016.4
20260504180049 60 147 1.7 7.0 0.00 0.00 0.00 72 1016.2
20260504174546 60 196 0.9 6.1 0.00 0.00 0.00 72 1016.1
20260504173041 60 151 2.6 8.7 0.00 0.00 0.00 71 1016.0
20260504171539 59 159 4.3 7.8 0.00 0.00 0.00 73 1016.0
20260504081554 55 147 0.9 3.5 0.00 0.00 0.00 77 1014.9
20260504044531 60 159 2.6 7.0 0.00 0.00 0.00 66 1013.8
20260504043026 60 238 1.7 7.8 0.00 0.00 0.00 66 1013.6